WZZ6MS LHBP-LGZA

Flight info

Callsign WZZ6MS
Flight time N/A
Altitude 35000
Route DUZLA DCT BAREB DCT SIVLA DCT OSLUD DCT RODON DCT LIMJA DCT PITAS UN732 KRK UT321 ASTUS
Aircraft A21N/M-SDE1E2E3FGIJ1J4RWXY/LB1

Departure

Time N/A
Airport Budapest Liszt Ferenc International Airport (LHBP)

Arrival

Time 2026-04-28 14:03
Airport Zakynthos International Airport Dionysios Solomos (LGZA)
Time Latitude Longitude Altitude Speed Heading
2026-04-28 12:55 44.36807 18.56758 35083 ft 460 kts 175°
2026-04-28 12:56 44.30498 18.58336 35085 ft 460 kts 175°
2026-04-28 12:56 44.24192 18.59905 35084 ft 460 kts 175°
2026-04-28 12:57 44.17910 18.61475 35086 ft 458 kts 175°
2026-04-28 12:57 44.11628 18.63030 35087 ft 458 kts 175°
2026-04-28 12:58 44.05347 18.64585 35076 ft 458 kts 175°
2026-04-28 12:58 43.99071 18.66135 35065 ft 458 kts 174°
2026-04-28 12:59 43.92807 18.67684 35064 ft 457 kts 174°
2026-04-28 13:00 43.79935 18.70848 35054 ft 458 kts 174°
2026-04-28 13:00 43.73663 18.72383 35062 ft 458 kts 174°
2026-04-28 13:01 43.67433 18.73910 35064 ft 457 kts 174°
2026-04-28 13:01 43.61173 18.75440 35051 ft 457 kts 174°
2026-04-28 13:02 43.54914 18.76962 35060 ft 457 kts 174°
2026-04-28 13:02 43.48657 18.78483 35059 ft 456 kts 175°
2026-04-28 13:03 43.42372 18.79576 35053 ft 455 kts 178°
2026-04-28 13:03 43.36090 18.80566 35055 ft 455 kts 178°
2026-04-28 13:04 43.29803 18.81566 35058 ft 454 kts 178°
2026-04-28 13:04 43.23521 18.82566 35058 ft 454 kts 178°
2026-04-28 13:05 43.17251 18.83554 35058 ft 454 kts 178°
2026-04-28 13:05 43.10975 18.84550 35059 ft 455 kts 178°
2026-04-28 13:06 43.04688 18.85546 35063 ft 454 kts 178°
2026-04-28 13:06 42.98415 18.86534 35062 ft 453 kts 177°
2026-04-28 13:07 42.92158 18.87522 35061 ft 453 kts 178°
2026-04-28 13:07 42.85937 18.88502 35070 ft 453 kts 178°
2026-04-28 13:08 42.79675 18.89482 35064 ft 453 kts 177°
2026-04-28 13:08 42.73405 18.90463 35070 ft 453 kts 177°
2026-04-28 13:09 42.67139 18.91440 35076 ft 454 kts 177°
2026-04-28 13:09 42.60863 18.92416 35067 ft 454 kts 177°
2026-04-28 13:10 42.54590 18.93392 35072 ft 454 kts 177°
2026-04-28 13:10 42.48323 18.94363 35064 ft 453 kts 177°
2026-04-28 13:11 42.42051 18.95332 35056 ft 454 kts 177°
2026-04-28 13:11 42.35774 18.96303 35068 ft 454 kts 177°
2026-04-28 13:12 42.29509 18.97270 35069 ft 453 kts 177°
2026-04-28 13:12 42.23235 18.98233 35068 ft 453 kts 177°
2026-04-28 13:13 42.16971 18.99193 35073 ft 453 kts 177°
2026-04-28 13:13 42.10700 19.00158 35081 ft 453 kts 177°
2026-04-28 13:14 42.05492 19.00949 35082 ft 453 kts 177°
2026-04-28 13:14 41.99224 19.01904 35075 ft 453 kts 176°
2026-04-28 13:15 41.92954 19.02857 35080 ft 453 kts 176°
2026-04-28 13:15 41.86682 19.03814 35080 ft 454 kts 176°
2026-04-28 13:16 41.80237 19.04798 35073 ft 453 kts 176°
2026-04-28 13:16 41.74154 19.05722 35085 ft 453 kts 176°
2026-04-28 13:17 41.67888 19.06666 35080 ft 453 kts 176°
2026-04-28 13:17 41.61625 19.07615 35063 ft 453 kts 176°
2026-04-28 13:18 41.55380 19.08553 35081 ft 451 kts 176°
2026-04-28 13:18 41.49132 19.09489 35085 ft 452 kts 176°
2026-04-28 13:19 41.42982 19.11302 35074 ft 456 kts 162°
2026-04-28 13:19 41.37032 19.14253 35074 ft 456 kts 161°
2026-04-28 13:20 41.31096 19.17189 35093 ft 455 kts 161°
2026-04-28 13:20 41.25187 19.20072 35079 ft 455 kts 161°
2026-04-28 13:21 41.19239 19.22961 35083 ft 455 kts 161°
2026-04-28 13:21 41.13296 19.25850 35079 ft 455 kts 162°
2026-04-28 13:22 41.07351 19.28725 35080 ft 455 kts 162°
2026-04-28 13:22 41.01416 19.31600 35078 ft 455 kts 162°
2026-04-28 13:23 40.95468 19.34460 35066 ft 455 kts 161°
2026-04-28 13:23 40.89524 19.37315 35078 ft 454 kts 161°
2026-04-28 13:24 40.83588 19.40167 35067 ft 454 kts 161°
2026-04-28 13:24 40.77653 19.43012 35073 ft 454 kts 161°
2026-04-28 13:25 40.71715 19.45856 35067 ft 454 kts 161°
2026-04-28 13:25 40.65642 19.48059 35080 ft 452 kts 169°
2026-04-28 13:26 40.59499 19.49852 35075 ft 453 kts 169°
2026-04-28 13:26 40.53353 19.51680 35076 ft 453 kts 169°
2026-04-28 13:27 40.47211 19.53518 35070 ft 453 kts 168°
2026-04-28 13:27 40.41069 19.55351 35072 ft 452 kts 169°
2026-04-28 13:28 40.34934 19.57173 35076 ft 452 kts 169°
2026-04-28 13:28 40.28792 19.59001 35071 ft 452 kts 168°
2026-04-28 13:29 40.22653 19.60819 35074 ft 452 kts 168°
2026-04-28 13:29 40.16520 19.62640 35076 ft 452 kts 168°
2026-04-28 13:30 40.10384 19.64455 35077 ft 452 kts 168°
2026-04-28 13:30 40.04313 19.66589 35077 ft 452 kts 166°
2026-04-28 13:31 39.95153 19.69244 35077 ft 452 kts 169°
2026-04-28 13:31 39.89026 19.71035 35070 ft 451 kts 168°
2026-04-28 13:32 39.82906 19.72840 35061 ft 451 kts 168°
2026-04-28 13:32 39.76779 19.74625 35063 ft 451 kts 169°
2026-04-28 13:33 39.70655 19.76399 35058 ft 451 kts 169°
2026-04-28 13:33 39.64523 19.78179 35053 ft 451 kts 169°
2026-04-28 13:34 39.58391 19.79944 35055 ft 452 kts 169°
2026-04-28 13:34 39.52240 19.81717 35055 ft 453 kts 169°
2026-04-28 13:35 39.46091 19.83485 35057 ft 453 kts 169°
2026-04-28 13:35 39.39934 19.85255 35061 ft 453 kts 169°
2026-04-28 13:36 39.33778 19.87016 35081 ft 454 kts 169°
2026-04-28 13:36 39.27627 19.88779 34936 ft 449 kts 169°
2026-04-28 13:37 39.24601 19.89641 34657 ft 442 kts 169°
2026-04-28 13:37 39.21610 19.90492 34407 ft 438 kts 169°
2026-04-28 13:37 39.18640 19.91339 34176 ft 436 kts 169°
2026-04-28 13:37 39.15686 19.92182 33903 ft 434 kts 169°
2026-04-28 13:38 39.12740 19.93023 33627 ft 433 kts 169°
2026-04-28 13:38 39.09806 19.93858 33359 ft 431 kts 169°
2026-04-28 13:38 39.06885 19.94688 33097 ft 429 kts 169°
2026-04-28 13:38 39.03981 19.95514 32776 ft 426 kts 169°
2026-04-28 13:39 39.01098 19.96329 32331 ft 422 kts 169°
2026-04-28 13:39 38.98248 19.97134 31801 ft 419 kts 169°
2026-04-28 13:39 38.95410 19.97939 31286 ft 416 kts 169°
2026-04-28 13:39 38.92592 19.98735 30795 ft 413 kts 169°
2026-04-28 13:40 38.89793 19.99529 30312 ft 410 kts 169°
2026-04-28 13:40 38.87009 20.00318 29754 ft 408 kts 169°
2026-04-28 13:40 38.84249 20.01096 29209 ft 405 kts 169°
2026-04-28 13:40 38.81507 20.01869 28696 ft 401 kts 169°
2026-04-28 13:41 38.78793 20.02633 28206 ft 398 kts 169°
2026-04-28 13:41 38.76110 20.03389 27743 ft 393 kts 169°
2026-04-28 13:41 38.73448 20.04138 27285 ft 389 kts 169°
2026-04-28 13:41 38.70807 20.04878 26806 ft 387 kts 168°
2026-04-28 13:42 38.68239 20.05601 26347 ft 384 kts 168°
2026-04-28 13:42 38.65641 20.06332 25895 ft 381 kts 168°
2026-04-28 13:42 38.63066 20.07057 25457 ft 378 kts 168°
2026-04-28 13:42 38.60508 20.07780 25014 ft 375 kts 168°
2026-04-28 13:43 38.57966 20.08495 24567 ft 373 kts 168°
2026-04-28 13:43 38.55434 20.09205 24119 ft 371 kts 168°
2026-04-28 13:43 38.52916 20.09910 23668 ft 370 kts 168°
2026-04-28 13:43 38.50414 20.10609 23150 ft 368 kts 168°
2026-04-28 13:44 38.47923 20.11305 22682 ft 365 kts 168°
2026-04-28 13:44 38.45452 20.11996 22225 ft 362 kts 169°
2026-04-28 13:44 38.42997 20.12680 21758 ft 360 kts 169°
2026-04-28 13:44 38.40604 20.13589 21302 ft 358 kts 158°
2026-04-28 13:45 38.38415 20.15079 20888 ft 355 kts 149°
2026-04-28 13:45 38.36328 20.16737 20478 ft 353 kts 148°
2026-04-28 13:45 38.34254 20.18389 20061 ft 350 kts 148°
2026-04-28 13:45 38.32186 20.20013 19651 ft 348 kts 149°
2026-04-28 13:46 38.30123 20.21613 19234 ft 346 kts 149°
2026-04-28 13:46 38.28068 20.23197 18831 ft 343 kts 149°
2026-04-28 13:46 38.26027 20.24767 18421 ft 342 kts 149°
2026-04-28 13:46 38.23993 20.26327 17968 ft 341 kts 149°
2026-04-28 13:47 38.21966 20.27883 17539 ft 339 kts 149°
2026-04-28 13:47 38.19948 20.29428 17133 ft 338 kts 149°
2026-04-28 13:47 38.17939 20.30962 16760 ft 336 kts 149°
2026-04-28 13:47 38.15943 20.32487 16409 ft 334 kts 149°
2026-04-28 13:48 38.13959 20.34004 16060 ft 333 kts 149°
2026-04-28 13:48 38.11978 20.35518 15712 ft 332 kts 149°
2026-04-28 13:48 38.09999 20.37029 15360 ft 331 kts 149°
2026-04-28 13:48 38.08026 20.38536 15014 ft 329 kts 149°
2026-04-28 13:49 38.06094 20.40013 14702 ft 321 kts 148°
2026-04-28 13:49 38.04190 20.41467 14290 ft 318 kts 148°
2026-04-28 13:49 38.02300 20.42902 13839 ft 315 kts 148°
2026-04-28 13:49 38.00433 20.44322 13241 ft 312 kts 148°
2026-04-28 13:50 37.98607 20.45712 12673 ft 309 kts 148°
2026-04-28 13:50 37.96771 20.47107 12104 ft 306 kts 148°
2026-04-28 13:50 37.94949 20.48490 11511 ft 304 kts 148°
2026-04-28 13:50 37.93135 20.49864 10931 ft 303 kts 148°
2026-04-28 13:51 37.91337 20.51225 10389 ft 300 kts 148°
2026-04-28 13:51 37.89550 20.52578 9855 ft 298 kts 148°
2026-04-28 13:51 37.87785 20.53916 9319 ft 293 kts 149°
2026-04-28 13:51 37.86046 20.55235 8769 ft 290 kts 149°
2026-04-28 13:52 37.84329 20.56535 8240 ft 286 kts 149°
2026-04-28 13:52 37.82633 20.57817 7706 ft 284 kts 149°
2026-04-28 13:52 37.80945 20.59092 7297 ft 281 kts 149°
2026-04-28 13:52 37.79272 20.60354 6980 ft 279 kts 149°
2026-04-28 13:53 37.77608 20.61610 6807 ft 278 kts 149°
2026-04-28 13:53 37.75948 20.62862 6664 ft 277 kts 149°
2026-04-28 13:53 37.74292 20.64110 6542 ft 277 kts 149°
2026-04-28 13:53 37.72642 20.65356 6417 ft 276 kts 149°
2026-04-28 13:54 37.70992 20.66600 6296 ft 276 kts 149°
2026-04-28 13:54 37.69360 20.67829 6163 ft 267 kts 149°
2026-04-28 13:54 37.67778 20.69020 6003 ft 264 kts 149°
2026-04-28 13:54 37.66201 20.70207 5852 ft 261 kts 149°
2026-04-28 13:55 37.64684 20.71350 5743 ft 247 kts 149°
2026-04-28 13:55 37.63235 20.72439 5646 ft 241 kts 149°
2026-04-28 13:55 37.61797 20.73521 5535 ft 241 kts 149°
2026-04-28 13:55 37.60360 20.74602 5413 ft 241 kts 149°
2026-04-28 13:56 37.58922 20.75683 5287 ft 241 kts 149°
2026-04-28 13:56 37.57489 20.76764 5160 ft 239 kts 147°
2026-04-28 13:56 37.56256 20.78152 5018 ft 239 kts 123°
2026-04-28 13:56 37.55547 20.80040 4858 ft 237 kts 109°
2026-04-28 13:57 37.55087 20.82017 4579 ft 232 kts 103°
2026-04-28 13:57 37.54769 20.83960 4362 ft 221 kts 99°
2026-04-28 13:57 37.54569 20.85864 4022 ft 218 kts 95°
2026-04-28 13:57 37.54477 20.87763 3616 ft 218 kts 91°
2026-04-28 13:58 37.54495 20.89667 3291 ft 216 kts 86°
2026-04-28 13:58 37.54623 20.91557 3032 ft 217 kts 82°
2026-04-28 13:58 37.54926 20.93410 2968 ft 218 kts 69°
2026-04-28 13:58 37.55802 20.94893 2963 ft 212 kts 31°
2026-04-28 13:59 37.57159 20.95478 2709 ft 206 kts 358°
2026-04-28 13:59 37.58521 20.95061 2388 ft 201 kts 326°
2026-04-28 13:59 37.59625 20.93991 2214 ft 202 kts 324°
2026-04-28 13:59 37.60927 20.93316 2191 ft 203 kts 342°
2026-04-28 14:00 37.62233 20.92874 2207 ft 185 kts 342°
2026-04-28 14:00 37.63426 20.92474 2203 ft 176 kts 342°
2026-04-28 14:00 37.64602 20.92080 2041 ft 172 kts 342°
2026-04-28 14:00 37.65729 20.91697 1791 ft 163 kts 342°
2026-04-28 14:01 37.66784 20.91331 1571 ft 147 kts 341°
2026-04-28 14:01 37.67743 20.90994 1362 ft 142 kts 341°
2026-04-28 14:01 37.68693 20.90682 1177 ft 141 kts 342°
2026-04-28 14:01 37.69637 20.90347 992 ft 140 kts 342°
2026-04-28 14:02 37.70278 20.90145 842 ft 141 kts 345°
2026-04-28 14:02 37.71544 20.89769 628 ft 141 kts 343°
2026-04-28 14:02 37.72480 20.89411 431 ft 140 kts 345°
2026-04-28 14:02 37.73105 20.89165 310 ft 139 kts 343°
2026-04-28 14:03 37.74027 20.88817 136 ft 137 kts 345°
2026-04-28 14:03 37.74928 20.88484 29 ft 129 kts 346°
2026-04-28 14:03 37.75611 20.88233 27 ft 62 kts 343°
2026-04-28 14:03 37.75823 20.88147 28 ft 18 kts 307°
2026-04-28 14:04 37.75870 20.88109 27 ft 10 kts 54°
2026-04-28 14:04 37.75811 20.88156 28 ft 13 kts 160°
2026-04-28 14:04 37.75720 20.88193 29 ft 15 kts 164°
2026-04-28 14:04 37.75618 20.88230 27 ft 16 kts 162°
2026-04-28 14:05 37.75512 20.88273 26 ft 13 kts 156°
2026-04-28 14:05 37.75475 20.88362 26 ft 7 kts 105°
2026-04-28 14:05 37.75440 20.88415 26 ft 9 kts 153°
2026-04-28 14:05 37.75437 20.88462 26 ft 7 kts 69°
2026-04-28 14:06 37.75445 20.88493 26 ft 0 kts 73°
2026-04-28 14:06 37.75447 20.88502 28 ft 0 kts 73°
2026-04-28 14:06 37.75448 20.88504 28 ft 0 kts 73°